Regional Weather Roundup
Issued by NWS

Home | Current Version | Previous Version | Text Only | Print | Product List | Glossary On
Versions: 1 2 3 4 5 6 7 8 9 10 11 12 13 14 15 16 17 18 19 20 21 22 23 24 25 26 27 28 29 30 31 32 33 34 35 36 37 38 39 40 41 42 43 44 45 46 47 48 49 50
000
ASCA44 KEWX 272320
RWRMX

LATIN AMERICA AND CARIBBEAN REGIONAL WEATHER ROUNDUP
NATIONAL WEATHER SERVICE AUSTIN/SAN ANTONIO TX
600 PM CDT SUN MAY 27 2018

NOTE: "FAIR" INDICATED FEW OR NO CLOUDS BELOW 12,000 FEET WITH NO
SIGNIFICANT WEATHER AND/OR OBSTRUCTIONS TO VISIBILITY.

BAJA CALIFORNIA

CITY           SKY/WX    TMP DP  RH WIND       PRES   REMARKS
LORETO         SUNNY     88  68  51 NE14      29.74F HX  91
LA PAZ         SUNNY     95  28   9 N13       29.75F
MEXICALI       SUNNY     90  34  13 S7        29.75F
S.J. DEL CABO  SUNNY     90  46  22 SE10      29.76F
TIJUANA        SUNNY     68  54  60 W5        29.94S

NORTHWESTERN MEXICO

CITY           SKY/WX    TMP DP  RH WIND       PRES   REMARKS
CULIACAN       SUNNY     93  70  46 W7        29.70F HX  99
DURANGO        MOSUNNY   93  27   9 N10       29.99F
GUAYMAS        SUNNY     86  64  48 S12       29.69F
HERMOSILLO     MOSUNNY  100  28   8 SW6G17    29.76F HX  94
CD. JUAREZ     MOSUNNY   93  23   8 SW17      29.86F
LOS MOCHIS     SUNNY     93  45  18 W23       29.73F
OBREGON        SUNNY     97  30   9 W14       29.70F HX  91

NORTHEASTERN MEXICO

CITY           SKY/WX    TMP DP  RH WIND       PRES   REMARKS
CHIHUAHUA      MOSUNNY   99  37  12 W3        29.85F HX  93
MATAMOROS      SUNNY     91  68  46 SE15      29.75F HX  95
MONCLOVA         N/A    N/A N/A N/A MISG        N/A
MONTERREY      SUNNY     99  46  16 SE18      29.74F HX  95
NUEVO LAREDO   MOSUNNY  104  57  21 SE12      29.69F HX 103
PIEDRAS NEGRAS SUNNY    102  66  30 SE14      29.70F HX 107
REYNOSA        SUNNY     95  64  36 SE6       29.73S HX  97
SALTILLO       SUNNY     88  52  29 N9        30.05
TORREON        MOSUNNY  102  37  10 NE12      29.82F HX  96
CD. VICTORIA   SUNNY     97  55  24 NE6       29.73F HX  95

WESTERN MEXICO

CITY           SKY/WX    TMP DP  RH WIND       PRES   REMARKS
AGUASCALIENTES MOSUNNY   93  27   9 N5        30.02F
COLIMA           N/A    N/A N/A N/A MISG        N/A
DEL BAJIO      SUNNY     93  34  12 NE12      30.05F
GUADALAJARA    MOSUNNY   97  37  12 NW7       29.93F HX  92
MANZANILLO     MOSUNNY   86  75  70 SW9       29.72F HX  95
MAZATLAN       SUNNY     88  72  58 W7        29.72F HX  94
P. VALLARTA    SUNNY     84  75  74 W15       29.73F HX  92
URUAPAN        SUNNY     82  45  26 S7        30.01F
ZACATECAS      MOSUNNY   90  34  13 N12       30.11F

CENTRAL MEXICO

CITY           SKY/WX    TMP DP  RH WIND       PRES   REMARKS
CUERNAVACA       N/A    N/A N/A N/A MISG        N/A
MEXICO CITY    MOSUNNY   84  25  11 N18       30.15F
MORELIA        SUNNY     91  32  12 N3        30.02F
POZA RICA      SUNNY     90  75  62 E12       29.80  HX 100
PUEBLA         SUNNY     79  43  27 S18       30.14R
QUERETARO      SUNNY     88  30  12 E17       30.09S
S. LUIS POTOSI SUNNY     91  32  12 NE18      30.04F
TAMPICO          N/A    N/A N/A N/A MISG        N/A
TOLUCA         SUNNY     79  21  11 N8        30.21R

SOUTHERN MEXICO

CITY           SKY/WX    TMP DP  RH WIND       PRES   REMARKS
ACAPULCO       SUNNY     88  75  66 W10       29.74F HX  97
B. DE HUATULCO PTSUNNY  N/A N/A N/A W9        29.77
OAXACA         MOSUNNY   88  41  19 SE12      29.97F
P. ESCONDIDO   MOSUNNY   86  75  70 W12       29.85R HX  95
VERACRUZ       SUNNY     86  73  66 E12       29.75R HX  93
ZIHUATANEJO    MOSUNNY   88  73  62 SW9       29.75S HX  96

YUCATAN PENINSULA

CITY           SKY/WX    TMP DP  RH WIND       PRES   REMARKS
CAMPECHE       MOSUNNY   84  73  70 N12G23    29.77R HX  91
CANCUN         PTSUNNY   75  73  94 N7        29.77S
CHETUMAL       PTSUNNY   88  75  66 S6        29.73S HX  97
CD. DEL CARMEN SUNNY     86  73  66 N16       29.75S HX  93
COZUMEL        MOSUNNY   88  73  62 W9        29.74S HX  96
MERIDA         PTSUNNY   82  77  83 NW7       29.76F HX  91
MINATITLAN     SUNNY     84  68  58 N12       29.71S
TAPACHULA      PTSUNNY   88  73  62 SW9       29.75S HX  96
TUX. GUTIERREZ MOSUNNY   95  57  28 NW16      29.74R HX  94
VILLAHERMOSA   MOSUNNY   91  68  46 N7        29.75S HX  95

CENTRAL AMERICA

CITY           SKY/WX    TMP DP  RH WIND       PRES   REMARKS
BELIZE CITY    PTSUNNY   84  77  79 CALM      29.73S HX  94

CARIBBEAN

CITY           SKY/WX    TMP DP  RH WIND       PRES   REMARKS
ARUBA          PTCLDY    82  77  83 E23G35    29.83R HX  91
CURACAO          N/A     81  75  83 E15       29.86S
KINGSTON       PTCLDY    84  77  79 SE21      29.86S HX  94
NASSAU         CLOUDY    81  77  89 SE15      29.93R
SAN JUAN       PTCLDY    81  79  94 E14       30.01R
SANTO DOMINGO  MOCLDY    82  75  78 SE9       29.94S
ST. CROIX      CLEAR     77  77 100 NE5       30.02S
ST. KITTS      TSTM      75  72  88 N7        30.03R
ST. MAARTEN    PTCLDY    81  72  74 E13       30.03S
ST. THOMAS     CLEAR    N/A N/A N/A SE6       30.01R

$$




USA.gov is the U.S. government's official web portal to all federal, state and local government web resources and services.